Date,TemperatureHighF,TemperatureAvgF,TemperatureLowF,DewpointHighF,DewpointAvgF,DewpointLowF,HumidityHigh,HumidityAvg,HumidityLow,PressureMaxIn,PressureMinIn,WindSpeedMaxMPH,WindSpeedAvgMPH,GustSpeedMaxMPH,PrecipitationSumIn
2014-1-1,34,25,14,-100,-100,-100,0,0,100,0.00,40.00,0,-999,0,0.02
2014-1-2,24,17,5,-100,-100,-100,0,0,100,0.00,40.00,0,-999,0,0.00
2014-1-3,48,34,22,-100,-100,-100,0,0,100,0.00,40.00,0,-999,0,0.00
2014-1-4,23,20,16,-100,-100,-100,0,0,100,0.00,40.00,0,-999,0,0.10
2014-1-5,7,3,-7,-100,-100,-100,0,0,100,0.00,40.00,0,-999,0,0.01
2014-1-6,2,-12,-26,-100,-100,-100,0,0,100,0.00,40.00,0,-999,0,0.00
2014-1-7,15,6,-3,-100,-100,-100,0,0,100,0.00,40.00,0,-999,0,0.00
2014-1-8,16,11,4,-100,-100,-100,0,0,100,0.00,40.00,0,-999,0,0.00
2014-1-9,30,30,30,-100,-100,-100,0,0,100,0.00,40.00,0,-999,0,0.00
2014-1-10,38,29,15,-100,-100,-100,0,0,100,0.00,40.00,0,-999,0,0.01
2014-1-11,49,32,15,-100,-100,-100,0,0,100,0.00,40.00,0,-999,0,0.01
2014-1-12,41,34,27,-100,-100,-100,0,0,100,0.00,40.00,0,-999,0,0.00
2014-1-13,46,41,26,-100,-100,-100,0,0,100,0.00,40.00,0,-999,0,0.00
2014-1-14,41,27,16,-100,-100,-100,0,0,100,0.00,40.00,0,-999,0,0.00
2014-1-15,50,40,15,-100,-100,-100,0,0,100,0.00,40.00,0,-999,0,0.00
2014-1-17,37,27,17,-100,-100,-100,0,0,100,0.00,40.00,0,-999,0,0.00
2014-1-18,42,32,16,-100,-100,-100,0,0,100,0.00,40.00,0,-999,0,0.00
2014-1-19,41,33,20,-100,-100,-100,0,0,100,0.00,40.00,0,-999,0,0.00
2014-1-20,40,31,21,-100,-100,-100,0,0,100,0.00,40.00,0,-999,0,0.00
2014-1-21,40,31,16,-100,-100,-100,0,0,100,0.00,40.00,0,-999,0,0.00
2014-1-22,36,27,14,-100,-100,-100,0,0,100,0.00,40.00,0,-999,0,0.00
2014-1-23,25,13,3,-100,-100,-100,0,0,100,0.00,40.00,0,-999,0,0.00
2014-1-24,30,15,8,-100,-100,-100,0,0,100,0.00,40.00,0,-999,0,0.00
2014-1-25,35,29,20,-100,-100,-100,0,0,100,0.00,40.00,0,-999,0,0.01
2014-1-26,37,27,20,-100,-100,-100,0,0,100,0.00,40.00,0,-999,0,0.01
2014-1-27,23,17,4,-100,-100,-100,0,0,100,0.00,40.00,0,-999,0,0.00
2014-1-28,25,12,-4,-100,-100,-100,0,0,100,0.00,40.00,0,-999,0,0.00
2014-1-29,42,25,8,-100,-100,-100,0,0,100,0.00,40.00,0,-999,0,0.00
2014-1-30,41,28,17,-100,-100,-100,0,0,100,0.00,40.00,0,-999,0,0.00
2014-1-31,30,21,17,-100,-100,-100,0,0,100,0.00,40.00,0,-999,0,0.00